Tacoma, WA

12:00 AM PDT on October 17, 2017 (GMT -0700)
McChord Air Force Base

Weather History for KTCM - September, 2014

Change the Weather History Date:

Wednesday, September 3, 2014

  Actual Average Record
Temperature  
Mean Temperature 60 °F -  
Max Temperature 69 °F 71 °F 91 °F (1988)
Min Temperature 49 °F 48 °F 39 °F (1956)
Degree Days  
Heating Degree Days 5    
Growing Degree Days 10 (Base 50)    
Moisture  
Dew Point 50 °F    
Average Humidity 72    
Maximum Humidity 94    
Minimum Humidity 50    
Precipitation  
Precipitation 0.00 in - - ()
Sea Level Pressure  
Sea Level Pressure 30.06 in    
Wind  
Wind Speed 7 mph (NW)    
Max Wind Speed 13 mph    
Max Gust Speed -    
Visibility 10 miles    
Events      
Averages and records for this station are not official NWS values.
T = Trace of Precipitation, MM = Missing Value Source: NWS Daily Summary

Daily Weather History Graph

Daily Weather History Graph

Search for Another Location

Airport or City:

Trip Planner

Search our weather history database for the weather conditions in past years. The results will help you decide how hot, cold, wet, or windy it might be!

Date:

Astronomy

Sep. 03, 2014 Rise Set
Actual Time 6:31 AM PDT 7:45 PM PDT
Civil Twilight 6:00 AM PDT 8:16 PM PDT
Nautical Twilight 5:22 AM PDT 8:54 PM PDT
Astronomical Twilight 4:41 AM PDT 9:34 PM PDT
Moon 3:45 PM PDT (9/3) 12:18 AM PDT (9/3)
Length of Visible Light 14h 16m
Length of Day
13h 13m
Waxing Gibbous, 65% of the Moon is Illuminated
Sep 3
Waxing Gibbous
Sep 8
Full
Sep 15
Last Quarter
Sep 23
New
Oct 1
First Quarter

Hourly Weather History & Observations

Time (PDT) Temp. Dew Point Humidity Pressure Visibility Wind Dir Wind Speed Gust Speed Precip Events Conditions
12:58 AM 56.8 °F 51.1 °F 81% 29.94 in 10.0 mi NNW 12.7 mph - N/A   Overcast
1:58 AM 56.7 °F 50.9 °F 81% 29.94 in 10.0 mi NNW 12.7 mph - N/A   Overcast
2:58 AM 56.3 °F 50.7 °F 82% 29.96 in 10.0 mi NNW 9.2 mph - N/A   Overcast
3:58 AM 56.1 °F 50.4 °F 81% 29.99 in 10.0 mi NNW 6.9 mph - N/A   Overcast
4:58 AM 56.1 °F 50.5 °F 82% 30.00 in 10.0 mi NNW 6.9 mph - N/A   Overcast
5:03 AM 55.4 °F 50.0 °F 82% 29.99 in 10.0 mi North 6.9 mph - N/A   Overcast
5:58 AM 55.2 °F 50.0 °F 83% 30.01 in 10.0 mi NW 4.6 mph - N/A   Mostly Cloudy
6:28 AM 51.8 °F 50.0 °F 94% 30.01 in 10.0 mi NW 3.5 mph - N/A   Mostly Cloudy
6:58 AM 55.6 °F 50.5 °F 83% 30.04 in 10.0 mi North 4.6 mph - N/A   Overcast
7:13 AM 55.4 °F 50.0 °F 82% 30.03 in 10.0 mi NNW 3.5 mph - N/A   Overcast
8:23 AM 57.2 °F 50.0 °F 77% 30.05 in 10.0 mi Variable 3.5 mph - N/A   Overcast
8:58 AM 57.7 °F 50.9 °F 78% 30.07 in 10.0 mi WSW 8.1 mph - N/A   Overcast
9:58 AM 60.4 °F 50.5 °F 70% 30.09 in 10.0 mi West 6.9 mph - N/A   Mostly Cloudy
10:03 AM 60.8 °F 50.0 °F 68% 30.08 in 10.0 mi Variable 5.8 mph - N/A   Overcast
10:28 AM 60.8 °F 50.0 °F 68% 30.08 in 10.0 mi SW 6.9 mph - N/A   Scattered Clouds
10:33 AM 60.8 °F 50.0 °F 68% 30.08 in 10.0 mi SSW 6.9 mph - N/A   Mostly Cloudy
10:58 AM 62.2 °F 50.5 °F 65% 30.10 in 10.0 mi Variable 5.8 mph - N/A   Overcast
11:28 AM 64.4 °F 50.0 °F 59% 30.09 in 10.0 mi Variable 2.3 mph - N/A   Overcast
11:58 AM 63.9 °F 50.7 °F 62% 30.10 in 10.0 mi Variable 4.6 mph - N/A   Overcast
12:58 PM 65.5 °F 51.1 °F 60% 30.11 in 10.0 mi Variable 2.3 mph - N/A   Overcast
1:58 PM 65.7 °F 51.6 °F 60% 30.12 in 10.0 mi North 3.5 mph - N/A   Overcast
2:58 PM 67.5 °F 51.3 °F 56% 30.11 in 10.0 mi NW 6.9 mph - N/A   Mostly Cloudy
3:58 PM 68.5 °F 50.7 °F 53% 30.11 in 10.0 mi Variable 4.6 mph - N/A   Clear
4:58 PM 69.1 °F 49.8 °F 50% 30.10 in 10.0 mi NW 6.9 mph - N/A   Clear
5:58 PM 68.2 °F 49.8 °F 52% 30.10 in 10.0 mi NW 8.1 mph - N/A   Clear
6:58 PM 67.1 °F 50.2 °F 55% 30.10 in 10.0 mi NW 5.8 mph - N/A   Clear
7:58 PM 64.6 °F 49.6 °F 58% 30.09 in 10.0 mi Calm Calm - N/A   Clear
8:58 PM 56.5 °F 50.0 °F 79% 30.10 in 10.0 mi Calm Calm - N/A   Clear
9:58 PM 55.4 °F 49.8 °F 81% 30.10 in 10.0 mi South 1.2 mph - N/A   Clear
10:58 PM 53.1 °F 49.6 °F 88% 30.11 in 10.0 mi Calm Calm - N/A   Clear
11:58 PM 49.6 °F 47.3 °F 92% 30.12 in 10.0 mi Calm Calm - N/A   Clear